{"data":{"norad_id":61262,"epoch":"2026-09-21T13:11:07.489536Z","epoch_age_seconds":101443,"freshness":"FRESH","line1":"1 61262U 24175V   26264.54939224  .00001444  00000+0  53878-4 0  9991","line2":"2 61262  53.1627   0.5336 0001169  73.8410 286.2721 15.34382093111492","mean_motion":15.34382093,"eccentricity":0.0001169,"inclination_deg":53.1627,"raan_deg":0.5336,"arg_perigee_deg":73.841,"mean_anomaly_deg":286.2721,"bstar":5.3878e-5,"rev_number":11149,"period_min":93.848853331215,"perigee_km":461.9567636565,"apogee_km":463.55616454841,"semimajor_km":6840.8934641025,"source":"CELESTRAK","updated_at":"2026-09-22T09:00:49.352335Z"}}